Mercury, NV

7:54 AM PDT on July 20, 2017 (GMT -0700)
Mercury

Weather History for KDRA - August, 2014

Change the Weather History Date:

Tuesday, August 12, 2014

  Actual Average Record
Temperature  
Mean Temperature 82 °F 84 °F  
Max Temperature 95 °F 99 °F 107 °F (2002)
Min Temperature 68 °F 70 °F 60 °F (2013)
Degree Days  
Heating Degree Days 0    
Cooling Degree Days 16    
Growing Degree Days 32 (Base 50)    
Moisture  
Dew Point 59 °F    
Average Humidity 49    
Maximum Humidity 67    
Minimum Humidity 26    
Precipitation  
Precipitation 0.04 in 0.02 in 0.05 in (2014)
Month to date precipitation 0.29  
Year to date precipitation 3.60  
Sea Level Pressure  
Sea Level Pressure 29.91 in    
Wind  
Wind Speed 10 mph (East)    
Max Wind Speed 22 mph    
Max Gust Speed 28 mph    
Visibility 10 miles    
Events      
T = Trace of Precipitation, MM = Missing Value Source: NWS Daily Summary

Daily Weather History Graph

Daily Weather History Graph

Search for Another Location

Airport or City:

Trip Planner

Search our weather history database for the weather conditions in past years. The results will help you decide how hot, cold, wet, or windy it might be!

Date:

Astronomy

Aug. 12, 2014 Rise Set
Actual Time 5:59 AM PDT 7:38 PM PDT
Civil Twilight 5:31 AM PDT 8:06 PM PDT
Nautical Twilight 4:58 AM PDT 8:39 PM PDT
Astronomical Twilight 4:22 AM PDT 9:14 PM PDT
Moon 8:54 PM PDT (8/12) 8:16 AM PDT (8/12)
Length of Visible Light 14h 34m
Length of Day
13h 39m
Waning Gibbous, 94% of the Moon is Illuminated
Aug 12
Waning Gibbous
Aug 17
Last Quarter
Aug 25
New
Sep 2
First Quarter
Sep 8
Full

Hourly Weather History & Observations

Time (PDT) Temp. Heat Index Dew Point Humidity Pressure Visibility Wind Dir Wind Speed Gust Speed Precip Events Conditions
12:52 AM 71.1 °F - 59.0 °F 66% 29.99 in 10.0 mi NNE 15.0 mph - N/A   Clear
1:52 AM 72.0 °F - 59.0 °F 64% 29.98 in 10.0 mi NE 13.8 mph - N/A   Overcast
2:52 AM 72.0 °F - 57.9 °F 61% 29.98 in 10.0 mi NNE 8.1 mph - N/A   Partly Cloudy
3:52 AM 71.1 °F - 57.9 °F 63% 29.96 in 10.0 mi NE 13.8 mph - N/A   Mostly Cloudy
4:52 AM 72.0 °F - 57.0 °F 59% 29.95 in 10.0 mi NE 10.4 mph 18.4 mph N/A   Scattered Clouds
5:52 AM 71.1 °F - 59.0 °F 66% 29.96 in 10.0 mi NE 8.1 mph - N/A   Overcast
6:52 AM 72.0 °F - 59.0 °F 64% 29.97 in 10.0 mi Calm Calm - N/A   Mostly Cloudy
7:52 AM 75.9 °F - 57.0 °F 52% 29.98 in 10.0 mi NE 11.5 mph - N/A   Clear
8:52 AM 78.1 °F - 57.0 °F 48% 29.97 in 10.0 mi East 4.6 mph - N/A   Clear
10:52 AM 84.9 °F 83.7 °F 55.9 °F 37% 29.96 in 10.0 mi SE 8.1 mph - N/A   Clear
11:52 AM 88.0 °F 86.5 °F 55.9 °F 34% 29.95 in 10.0 mi Variable 3.5 mph - N/A   Clear
12:52 PM 89.6 °F 87.7 °F 55.4 °F 31% 30.07 in 10.0 mi SW 9.2 mph - N/A   Partly Cloudy
1:52 PM 93.0 °F 91.1 °F 55.0 °F 28% 29.89 in 10.0 mi SW 11.5 mph 17.3 mph N/A   Clear
2:52 PM 95.0 °F 93.0 °F 55.0 °F 26% 29.85 in 10.0 mi WSW 17.3 mph 23.0 mph N/A   Clear
3:52 PM 88.0 °F 86.7 °F 57.0 °F 35% 29.85 in 10.0 mi ESE 21.9 mph 27.6 mph N/A   Mostly Cloudy
4:52 PM 82.0 °F 83.8 °F 64.9 °F 56% 29.85 in 10.0 mi ENE 9.2 mph - 0.05 in   Mostly Cloudy
5:52 PM 87.1 °F 86.5 °F 59.0 °F 39% 29.82 in 10.0 mi ESE 12.7 mph - N/A   Clear
6:52 PM 86.0 °F 85.7 °F 60.1 °F 41% 29.82 in 10.0 mi ESE 9.2 mph - N/A   Clear
7:52 PM 82.9 °F 83.3 °F 61.0 °F 47% 29.83 in 10.0 mi ESE 8.1 mph - N/A   Clear
8:52 PM 82.0 °F 82.4 °F 60.1 °F 47% 29.84 in 10.0 mi SE 8.1 mph - N/A   Clear
9:52 PM 81.0 °F 81.7 °F 61.0 °F 50% 29.85 in 10.0 mi ESE 3.5 mph - N/A   Clear
10:52 PM 77.0 °F - 64.0 °F 64% 29.86 in 10.0 mi North 5.8 mph - N/A   Mostly Cloudy
11:52 PM 75.9 °F - 64.0 °F 67% 29.85 in 10.0 mi Calm Calm - N/A   Partly Cloudy